Norfolk NAS, VA

6:26 PM EST on November 21, 2019 (GMT -0500)
Norfolk Naval Station / Chambers Field

Weather History for KNGU - October, 2019

Change the Weather History Date:

Sunday, October 13, 2019

  Actual Average Record
Temperature  
Mean Temperature 68 °F -  
Max Temperature 78 °F 69 °F 82 °F (2014)
Min Temperature 60 °F 54 °F 48 °F (2006)
Cooling Degree Days 2    
Growing Degree Days 18 (Base 50)    
Moisture  
Dew Point 64 °F    
Average Humidity 86    
Maximum Humidity 97    
Minimum Humidity 68    
Precipitation  
Precipitation 0.18 in - - ()
Sea Level Pressure  
Sea Level Pressure 30.04 in    
Wind  
Wind Speed 4 mph (East)    
Max Wind Speed 12 mph    
Max Gust Speed -    
Visibility 10 miles    
Events Rain    
Averages and records for this station are not official NWS values.
T = Trace of Precipitation, MM = Missing Value Source: NWS Daily Summary

Daily Weather History Graph

Daily Weather History Graph

Search for Another Location

Airport or City:

Astronomy

Oct. 13, 2019 Rise Set
Actual Time 7:10 AM EDT 6:31 PM EDT
Civil Twilight 6:44 AM EDT 6:57 PM EDT
Nautical Twilight 6:14 AM EDT 7:27 PM EDT
Astronomical Twilight 5:44 AM EDT 7:57 PM EDT
Moon 6:51 PM EDT (10/13) 6:44 AM EDT (10/13)
Length of Visible Light 12h 12m
Length of Day
11h 20m
Full, 100% of the Moon is Illuminated
Oct 13
Full
Oct 13
Full
Oct 21
Last Quarter
Oct 27
New
Nov 4
First Quarter

Hourly Weather History & Observations

Time (EDT) Temp. Dew Point Humidity Pressure Visibility Wind Dir Wind Speed Gust Speed Precip Events Conditions
12:59 AM 64.0 °F 60.1 °F 87% 30.03 in 10.0 mi Calm Calm - N/A   Mostly Cloudy
1:59 AM 64.0 °F 60.1 °F 87% 30.02 in 10.0 mi Calm Calm - N/A   Partly Cloudy
2:59 AM 62.1 °F 59.0 °F 90% 30.02 in 10.0 mi Calm Calm - N/A   Partly Cloudy
3:59 AM 60.1 °F 57.9 °F 93% 30.02 in 10.0 mi Calm Calm - N/A   Scattered Clouds
4:59 AM 60.1 °F 57.9 °F 93% 30.04 in 10.0 mi Calm Calm - N/A   Scattered Clouds
5:59 AM 61.0 °F 59.0 °F 93% 30.05 in 10.0 mi Calm Calm - N/A   Mostly Cloudy
6:59 AM 68.0 °F 66.0 °F 93% 30.06 in 10.0 mi East 9.2 mph - N/A   Mostly Cloudy
7:14 AM 68.0 °F 66.0 °F 93% 30.06 in 10.0 mi East 6.9 mph - N/A   Mostly Cloudy
7:59 AM 68.0 °F 66.0 °F 93% 30.07 in 10.0 mi East 8.1 mph - N/A   Scattered Clouds
8:12 AM 68.0 °F 66.0 °F 93% 30.07 in 10.0 mi ENE 9.2 mph - N/A   Mostly Cloudy
8:26 AM 69.1 °F 66.0 °F 90% 30.08 in 10.0 mi East 8.1 mph - N/A   Mostly Cloudy
8:59 AM 69.1 °F 66.0 °F 90% 30.09 in 10.0 mi ENE 8.1 mph - N/A   Mostly Cloudy
9:21 AM 70.0 °F 66.0 °F 87% 30.08 in 10.0 mi ENE 8.1 mph - N/A   Overcast
9:59 AM 71.1 °F 66.0 °F 84% 30.09 in 10.0 mi ENE 9.2 mph - N/A   Mostly Cloudy
10:59 AM 72.0 °F 66.0 °F 81% 30.08 in 10.0 mi NE 11.5 mph - N/A   Mostly Cloudy
11:59 AM 73.9 °F 66.0 °F 76% 30.06 in 10.0 mi ENE 9.2 mph - N/A   Mostly Cloudy
12:59 PM 75.9 °F 66.0 °F 71% 30.05 in 10.0 mi ENE 6.9 mph - N/A   Mostly Cloudy
1:59 PM 75.0 °F 64.9 °F 71% 30.02 in 10.0 mi Variable 5.8 mph - N/A   Overcast
2:59 PM 75.0 °F 64.9 °F 71% 30.02 in 10.0 mi NNW 5.8 mph - N/A   Overcast
3:59 PM 73.0 °F 66.0 °F 79% 30.02 in 10.0 mi WNW 4.6 mph - N/A   Overcast
4:59 PM 75.0 °F 64.0 °F 69% 30.02 in 10.0 mi West 8.1 mph - N/A   Mostly Cloudy
5:59 PM 73.9 °F 63.0 °F 68% 30.01 in 10.0 mi Variable 4.6 mph - N/A   Overcast
6:59 PM 71.1 °F 64.0 °F 78% 30.01 in 10.0 mi WSW 3.5 mph - N/A   Overcast
7:59 PM 69.1 °F 66.0 °F 90% 30.05 in 6.0 mi SSW 8.1 mph - 0.02 in Rain Light Rain
8:59 PM 66.9 °F 66.0 °F 97% 30.05 in 5.0 mi SSW 3.5 mph - 0.12 in Rain Light Rain
9:59 PM 66.0 °F 64.9 °F 96% 30.03 in 10.0 mi SSE 4.6 mph - 0.02 in Rain Light Rain
10:59 PM 66.0 °F 64.9 °F 96% 30.02 in 10.0 mi SSE 3.5 mph - 0.02 in Rain Light Rain
11:59 PM 66.0 °F 64.9 °F 96% 30.01 in 9.0 mi SSE 4.6 mph - 0.00 in Rain Light Rain